K0WOI Weather Reports


Display with metric or nautical units.
time (UTC)temp
F
wind
direction
speed
MPH
gust
MPH
rain 1hr
in
rain 24hr
in
rain mn
in
humidity
%
barometer
mb
20260510202845 72 245 4.0 5.0 0.00 0.00 0.00 25 1019.2
20260510202341 72 315 3.0 3.0 0.00 0.00 0.00 23 1019.1
20260510201838 72 312 4.0 6.0 0.00 0.00 0.00 23 1019.1
20260510201335 72 300 3.0 3.0 0.00 0.00 0.00 23 1019.1
20260510200832 72 310 2.0 2.0 0.00 0.00 0.00 23 1019.3
20260510200330 71 276 2.0 2.0 0.00 0.00 0.00 25 1019.4
20260510195825 71 264 3.0 3.0 0.00 0.00 0.00 25 1019.4
20260510195322 70 279 2.0 3.0 0.00 0.00 0.00 25 1019.4
20260510194817 70 220 8.0 10.0 0.00 0.00 0.00 26 1019.6
20260510194314 71 230 4.0 6.0 0.00 0.00 0.00 25 1019.5
20260510193809 70 284 2.0 3.0 0.00 0.00 0.00 25 1019.6
20260510193304 71 343 5.0 8.0 0.00 0.00 0.00 24 1019.7
20260510192801 71 325 2.0 2.0 0.00 0.00 0.00 26 1019.8
20260510192256 70 317 4.0 5.0 0.00 0.00 0.00 27 1019.6
20260510191752 70 264 4.0 5.0 0.00 0.00 0.00 26 1019.6
20260510191248 70 276 7.0 8.0 0.00 0.00 0.00 24 1019.7
20260510190747 70 332 3.0 5.0 0.00 0.00 0.00 23 1019.6
20260510190243 70 276 4.0 5.0 0.00 0.00 0.00 24 1019.9
20260510185739 70 239 4.0 5.0 0.00 0.00 0.00 25 1019.6
20260510185238 69 279 2.0 2.0 0.00 0.00 0.00 28 1019.9
20260510184734 70 354 6.0 9.0 0.00 0.00 0.00 25 1020.0
20260510184231 69 225 5.0 7.0 0.00 0.00 0.00 24 1020.1
20260510183726 69 246 3.0 5.0 0.00 0.00 0.00 26 1020.1
20260510183221 68 293 3.0 3.0 0.00 0.00 0.00 27 1020.2
20260510182717 68 289 2.0 3.0 0.00 0.00 0.00 27 1020.3
20260510182213 68 207 4.0 6.0 0.00 0.00 0.00 25 1020.3
20260510181710 69 269 4.0 6.0 0.00 0.00 0.00 27 1020.4
20260510181207 68 280 3.0 6.0 0.00 0.00 0.00 27 1020.5
20260510180703 67 275 1.0 3.0 0.00 0.00 0.00 27 1020.4
20260510180201 67 224 8.0 10.0 0.00 0.00 0.00 28 1020.3
20260510175657 67 305 4.0 5.0 0.00 0.00 0.00 26 1020.6
20260510175153 67 186 9.0 10.0 0.00 0.00 0.00 25 1020.7
20260510174650 67 333 3.0 3.0 0.00 0.00 0.00 31 1020.8
20260510174148 66 264 2.0 3.0 0.00 0.00 0.00 30 1020.6
20260510173643 66 312 2.0 2.0 0.00 0.00 0.00 29 1020.8
20260510173140 67 229 5.0 5.0 0.00 0.00 0.00 28 1020.8
20260510172635 67 324 2.0 2.0 0.00 0.00 0.00 28 1020.9
20260510172132 67 276 3.0 3.0 0.00 0.00 0.00 30 1021.0
20260510171628 66 240 3.0 3.0 0.00 0.00 0.00 29 1020.8
20260510171126 67 220 6.0 9.0 0.00 0.00 0.00 33 1021.0
20260510170622 66 317 2.0 2.0 0.00 0.00 0.00 27 1021.0
20260510170119 66 288 2.0 3.0 0.00 0.00 0.00 30 1021.1
20260510165614 64 251 1.0 1.0 0.00 0.00 0.00 31 1021.1
20260510165110 64 329 4.0 5.0 0.00 0.00 0.00 30 1020.8
20260510164608 64 295 2.0 2.0 0.00 0.00 0.00 30 1021.2
20260510164104 64 211 3.0 3.0 0.00 0.00 0.00 34 1021.0
20260510163559 64 236 5.0 6.0 0.00 0.00 0.00 32 1021.3
20260510163056 64 315 2.0 3.0 0.00 0.00 0.00 33 1021.2
20260510162551 64 249 3.0 5.0 0.00 0.00 0.00 32 1021.3
20260510162048 64 345 5.0 6.0 0.00 0.00 0.00 31 1021.3
20260510161543 64 316 2.0 2.0 0.00 0.00 0.00 31 1021.4
20260510161041 64 302 3.0 5.0 0.00 0.00 0.00 32 1021.5
20260510160537 63 239 4.0 6.0 0.00 0.00 0.00 31 1021.4
20260510160037 63 283 2.0 2.0 0.00 0.00 0.00 32 1021.5
20260510155533 62 324 1.0 1.0 0.00 0.00 0.00 30 1021.4
20260510155030 62 270 2.0 3.0 0.00 0.00 0.00 30 1021.3
20260510154525 62 281 2.0 3.0 0.00 0.00 0.00 30 1021.5
20260510154021 62 321 2.0 2.0 0.00 0.00 0.00 34 1021.3
20260510153516 62 335 3.0 3.0 0.00 0.00 0.00 30 1021.2
20260510153013 62 244 4.0 5.0 0.00 0.00 0.00 34 1021.1
20260510152510 61 255 2.0 2.0 0.00 0.00 0.00 32 1021.0
20260510152006 61 268 1.0 2.0 0.00 0.00 0.00 34 1021.0
20260510151503 61 309 2.0 2.0 0.00 0.00 0.00 35 1021.0
20260510151001 60 292 2.0 2.0 0.00 0.00 0.00 36 1020.9
20260510150456 60 324 0.0 0.0 0.00 0.00 0.00 34 1020.9
20260510145952 60 294 1.0 1.0 0.00 0.00 0.00 36 1020.8
20260510145448 59 226 3.0 3.0 0.00 0.00 0.00 36 1020.4
20260510144945 59 342 0.0 0.0 0.00 0.00 0.00 37 1020.7
20260510144442 59 298 1.0 1.0 0.00 0.00 0.00 36 1020.6
20260510143937 58 306 0.0 0.0 0.00 0.00 0.00 37 1020.6
20260510143433 57 286 0.0 1.0 0.00 0.00 0.00 38 1020.9
20260510142930 56 289 1.0 1.0 0.00 0.00 0.00 39 1020.5
20260510142421 56 280 2.0 5.0 0.00 0.00 0.00 39 1020.6
20260510141917 55 318 1.0 2.0 0.00 0.00 0.00 42 1020.5
20260510141415 55 310 0.0 0.0 0.00 0.00 0.00 45 1020.6
20260510140911 54 311 1.0 1.0 0.00 0.00 0.00 42 1020.6
20260510140408 53 311 1.0 1.0 0.00 0.00 0.00 43 1020.3
20260510135901 53 320 0.0 1.0 0.00 0.00 0.00 49 1020.5
20260510135358 51 320 2.0 2.0 0.00 0.00 0.00 49 1020.5
20260510134855 51 320 0.0 0.0 0.00 0.00 0.00 52 1020.6
20260510134351 50 320 1.0 1.0 0.00 0.00 0.00 54 1020.6
20260510133848 50 319 1.0 1.0 0.00 0.00 0.00 56 1020.6
20260510133344 49 320 0.0 0.0 0.00 0.00 0.00 57 1020.6
20260510132840 48 321 0.0 1.0 0.00 0.00 0.00 60 1020.6
20260510132338 47 321 0.0 1.0 0.00 0.00 0.00 63 1020.6
20260510131834 46 321 1.0 1.0 0.00 0.00 0.00 63 1020.4
20260510131332 45 322 0.0 1.0 0.00 0.00 0.00 66 1020.4
20260510130828 44 322 1.0 1.0 0.00 0.00 0.00 69 1020.3
20260510130326 43 321 0.0 0.0 0.00 0.00 0.00 72 1020.2
20260510125822 43 321 0.0 0.0 0.00 0.00 0.00 75 1020.5
20260510125318 42 321 0.0 0.0 0.00 0.00 0.00 78 1020.5
20260510124815 41 321 0.0 0.0 0.00 0.00 0.00 78 1020.5
20260510124312 41 321 0.0 0.0 0.00 0.00 0.00 78 1020.4
20260510123808 40 321 0.0 1.0 0.00 0.00 0.00 78 1020.4
20260510123304 40 321 0.0 1.0 0.00 0.00 0.00 77 1020.2
20260510122800 39 321 0.0 0.0 0.00 0.00 0.00 77 1020.3
20260510122256 38 321 0.0 0.0 0.00 0.00 0.00 80 1020.2
20260510121753 37 321 0.0 0.0 0.00 0.00 0.00 83 1020.1
20260510121250 36 321 0.0 0.0 0.00 0.00 0.00 83 1020.0
20260510120747 36 321 0.0 0.0 0.00 0.00 0.00 84 1019.9
20260510120244 36 321 0.0 0.0 0.00 0.00 0.00 86 1019.8
20260510115739 36 321 0.0 0.0 0.00 0.00 0.00 86 1019.6
20260510115238 36 321 0.0 0.0 0.00 0.00 0.00 87 1019.7
20260510114732 36 321 0.0 0.0 0.00 0.00 0.00 90 1019.6
20260510114230 36 321 0.0 0.0 0.00 0.00 0.00 92 1019.3
20260510113725 36 321 0.0 0.0 0.00 0.00 0.00 92 1019.4
20260510113223 36 321 0.0 0.0 0.00 0.00 0.00 92 1019.5
20260510112718 36 321 0.0 0.0 0.00 0.00 0.00 91 1019.4
20260510112216 36 321 0.0 0.0 0.00 0.00 0.00 90 1019.7
20260510111711 35 321 0.0 0.0 0.00 0.00 0.00 89 1019.6
20260510111209 35 321 0.0 0.0 0.00 0.00 0.00 89 1019.5
20260510110703 35 321 0.0 0.0 0.00 0.00 0.00 88 1019.5
20260510110201 36 321 0.0 0.0 0.00 0.00 0.00 88 1019.6
20260510105655 36 321 0.0 0.0 0.00 0.00 0.00 89 1019.5
20260510105150 36 321 0.0 0.0 0.00 0.00 0.00 89 1019.5
20260510104647 36 321 0.0 0.0 0.00 0.00 0.00 89 1019.4
20260510104143 36 321 0.0 0.0 0.00 0.00 0.00 90 1019.4
20260510103635 36 321 0.0 0.0 0.00 0.00 0.00 90 1019.3
20260510103131 36 321 0.0 0.0 0.00 0.00 0.00 90 1018.9
20260510102627 36 321 0.0 0.0 0.00 0.00 0.00 89 1019.0
20260510102123 36 321 0.0 0.0 0.00 0.00 0.00 88 1018.8
20260510101621 36 321 0.0 0.0 0.00 0.00 0.00 87 1018.9
20260510101119 37 321 0.0 0.0 0.00 0.00 0.00 87 1019.1
20260510100614 37 321 0.0 0.0 0.00 0.00 0.00 86 1018.7
20260510100112 37 321 0.0 0.0 0.00 0.00 0.00 84 1018.8
20260510095607 38 321 0.0 0.0 0.00 0.00 0.00 83 1018.8
20260510095102 37 321 0.0 0.0 0.00 0.00 0.00 79 1018.6
20260510094601 37 321 0.0 0.0 0.00 0.00 0.00 78 1018.7
20260510094057 37 321 0.0 0.0 0.00 0.00 0.00 80 1018.7
20260510093554 37 321 0.0 0.0 0.00 0.00 0.00 82 1018.8
20260510093050 37 321 0.0 0.0 0.00 0.00 0.00 83 1018.5
20260510092547 38 321 0.0 0.0 0.00 0.00 0.00 83 1018.7
20260510092046 38 321 0.0 0.0 0.00 0.00 0.00 83 1018.6
20260510091544 39 321 0.0 0.0 0.00 0.00 0.00 82 1018.7
20260510091040 39 321 0.0 0.0 0.00 0.00 0.00 80 1018.5
20260510090537 40 321 0.0 0.0 0.00 0.00 0.00 78 1018.6
20260510090032 40 321 0.0 0.0 0.00 0.00 0.00 76 1018.6
20260510085527 40 321 0.0 0.0 0.00 0.00 0.00 77 1018.6
20260510085023 41 321 0.0 0.0 0.00 0.00 0.00 76 1018.7
20260510084520 41 321 0.0 0.0 0.00 0.00 0.00 73 1018.6
20260510084017 41 321 0.0 0.0 0.00 0.00 0.00 72 1018.6
20260510083513 41 321 0.0 0.0 0.00 0.00 0.00 68 1018.5
20260510083009 41 321 0.0 0.0 0.00 0.00 0.00 69 1018.0
20260510082507 41 321 0.0 0.0 0.00 0.00 0.00 70 1017.9
20260510082007 42 321 0.0 0.0 0.00 0.00 0.00 61 1017.7
20260510081502 42 321 0.0 0.0 0.00 0.00 0.00 64 1017.9
20260510080958 43 321 0.0 0.0 0.00 0.00 0.00 63 1017.7
20260510080457 43 321 0.0 0.0 0.00 0.00 0.00 63 1017.9
20260510075954 43 321 0.0 0.0 0.00 0.00 0.00 62 1017.7
20260510075452 43 321 0.0 0.0 0.00 0.00 0.00 60 1017.5
20260510074948 44 321 0.0 0.0 0.00 0.00 0.00 59 1017.4
20260510074446 43 321 0.0 0.0 0.00 0.00 0.00 59 1017.5
20260510073942 43 321 0.0 0.0 0.00 0.00 0.00 60 1017.4
20260510073437 43 321 0.0 0.0 0.00 0.00 0.00 63 1017.7
20260510072934 43 321 0.0 0.0 0.00 0.00 0.00 61 1017.3
20260510072431 43 321 0.0 0.0 0.00 0.00 0.00 64 1017.1
20260510071926 43 321 0.0 0.0 0.00 0.00 0.00 62 1016.8
20260510071423 43 321 0.0 0.0 0.00 0.00 0.00 67 1016.9
20260510070921 43 321 0.0 0.0 0.00 0.00 0.00 67 1016.8
20260510070419 44 321 0.0 0.0 0.00 0.00 0.00 62 1016.9
20260510065914 44 321 0.0 0.0 0.00 0.00 0.00 61 1017.0
20260510065410 44 321 0.0 0.0 0.00 0.00 0.00 60 1017.0
20260510064907 43 321 0.0 0.0 0.00 0.00 0.00 61 1016.9
20260510064405 43 321 0.0 0.0 0.00 0.00 0.00 60 1017.0
20260510063901 43 321 0.0 0.0 0.00 0.00 0.00 59 1016.8
20260510063357 43 321 0.0 0.0 0.00 0.00 0.00 63 1016.5
20260510062854 43 321 0.0 0.0 0.00 0.00 0.00 63 1016.3
20260510062349 43 321 0.0 0.0 0.00 0.00 0.00 63 1016.1
20260510061845 43 321 0.0 0.0 0.00 0.00 0.00 65 1016.5
20260510061342 43 321 0.0 0.0 0.00 0.00 0.00 66 1016.5
20260510060838 44 321 0.0 0.0 0.00 0.00 0.00 66 1016.4
20260510060336 44 321 0.0 0.0 0.00 0.00 0.00 62 1016.3
20260510055832 44 321 0.0 0.0 0.00 0.00 0.00 64 1016.4
20260510055331 44 321 0.0 0.0 0.00 0.00 0.00 60 1016.4
20260510054831 44 321 0.0 0.0 0.00 0.00 0.00 62 1016.3
20260510054326 45 321 0.0 0.0 0.00 0.00 0.00 62 1016.1
20260510053821 45 321 0.0 0.0 0.00 0.00 0.00 58 1016.0
20260510053317 45 321 0.0 0.0 0.00 0.00 0.00 57 1016.1
20260510052814 45 321 0.0 0.0 0.00 0.00 0.00 58 1016.0
20260510052310 45 321 0.0 0.0 0.00 0.00 0.00 62 1015.8
20260510051806 46 321 0.0 0.0 0.00 0.00 0.00 59 1015.7
20260510051303 46 321 0.0 0.0 0.00 0.00 0.00 54 1015.6
20260510050800 46 321 0.0 0.0 0.00 0.00 0.00 58 1015.7
20260510050257 47 321 0.0 0.0 0.00 0.00 0.00 52 1015.6
20260510045754 46 321 0.0 0.0 0.00 0.00 0.00 51 1015.5
20260510045250 47 321 0.0 0.0 0.00 0.00 0.00 53 1015.3
20260510044747 47 321 0.0 0.0 0.00 0.00 0.00 53 1015.3
20260510044245 47 321 0.0 0.0 0.00 0.00 0.00 55 1015.2
20260510043740 47 321 0.0 0.0 0.00 0.00 0.00 55 1015.3
20260510043237 48 321 0.0 0.0 0.00 0.00 0.00 56 1015.4
20260510042734 48 321 0.0 1.0 0.00 0.00 0.00 54 1015.4
20260510042229 48 321 0.0 0.0 0.00 0.00 0.00 52 1014.9
20260510041727 48 321 0.0 0.0 0.00 0.00 0.00 54 1015.1
20260510041224 49 321 0.0 0.0 0.00 0.00 0.00 55 1015.0
20260510040721 49 321 0.0 1.0 0.00 0.00 0.00 51 1014.9
20260510040218 50 321 0.0 1.0 0.00 0.00 0.00 55 1015.0
20260510035713 50 321 0.0 0.0 0.00 0.00 0.00 51 1014.8
20260510035209 50 321 0.0 0.0 0.00 0.00 0.00 50 1014.9
20260510034705 51 321 0.0 0.0 0.00 0.00 0.00 49 1014.8
20260510034203 51 321 0.0 0.0 0.00 0.00 0.00 47 1014.8
20260510033659 51 321 0.0 0.0 0.00 0.00 0.00 45 1014.5
20260510033157 51 321 0.0 0.0 0.00 0.00 0.00 47 1014.4
20260510032653 51 322 0.0 0.0 0.00 0.00 0.00 44 1014.5
20260510032149 51 322 0.0 0.0 0.00 0.00 0.00 45 1014.4
20260510031644 52 323 0.0 0.0 0.00 0.00 0.00 46 1014.2
20260510031141 52 323 0.0 0.0 0.00 0.00 0.00 45 1014.0
20260510030641 52 323 0.0 0.0 0.00 0.00 0.00 45 1014.0
20260510030139 53 323 0.0 0.0 0.00 0.00 0.00 42 1013.9
20260510025636 53 323 0.0 0.0 0.00 0.00 0.00 42 1013.8
20260510025133 53 323 0.0 1.0 0.00 0.00 0.00 42 1013.8
20260510024630 54 322 1.0 1.0 0.00 0.00 0.00 42 1013.7
20260510024126 54 321 0.0 1.0 0.00 0.00 0.00 44 1013.4
20260510023622 55 322 0.0 1.0 0.00 0.00 0.00 41 1013.5
20260510023120 55 322 0.0 0.0 0.00 0.00 0.00 38 1013.2
20260510022619 56 321 0.0 0.0 0.00 0.00 0.00 38 1013.0
20260510022114 56 320 0.0 0.0 0.00 0.00 0.00 38 1012.9
20260510021610 57 316 0.0 0.0 0.00 0.00 0.00 36 1012.8
20260510021108 57 320 0.0 0.0 0.00 0.00 0.00 38 1012.8
20260510020602 57 319 0.0 0.0 0.00 0.00 0.00 40 1012.7
20260510020058 57 316 0.0 0.0 0.00 0.00 0.00 37 1012.7
20260510015554 57 313 2.0 2.0 0.00 0.00 0.00 37 1012.5
20260510015050 58 315 0.0 0.0 0.00 0.00 0.00 38 1012.5
20260510014546 59 313 0.0 0.0 0.00 0.00 0.00 37 1012.3
20260510014044 60 311 0.0 0.0 0.00 0.00 0.00 36 1012.3
20260510013538 60 303 2.0 3.0 0.00 0.00 0.00 34 1012.2
20260510013034 61 315 0.0 1.0 0.00 0.00 0.00 34 1012.0
20260510012528 61 316 2.0 3.0 0.00 0.00 0.00 33 1011.9
20260510012025 61 311 1.0 2.0 0.00 0.00 0.00 33 1011.8
20260510011524 62 313 0.0 0.0 0.00 0.00 0.00 34 1011.7
20260510011020 62 314 1.0 1.0 0.00 0.00 0.00 32 1011.9
20260510010518 63 317 1.0 2.0 0.00 0.00 0.00 31 1011.6
20260510010015 63 315 1.0 1.0 0.00 0.00 0.00 32 1011.5
20260510005510 64 311 1.0 2.0 0.00 0.00 0.00 31 1011.4
20260510005008 64 332 4.0 5.0 0.00 0.00 0.00 30 1011.2
20260510004505 65 313 1.0 1.0 0.00 0.00 0.00 30 1011.2
20260510004003 65 312 2.0 3.0 0.00 0.00 0.00 30 1010.9
20260510003459 65 297 2.0 2.0 0.00 0.00 0.00 29 1011.0
20260510002955 66 313 1.0 2.0 0.00 0.00 0.00 30 1010.8
20260510002451 66 316 2.0 2.0 0.00 0.00 0.00 30 1010.9
20260510001948 66 286 2.0 3.0 0.00 0.00 0.00 28 1010.8
20260510001445 67 310 2.0 2.0 0.00 0.00 0.00 31 1010.4
20260510000943 67 288 2.0 2.0 0.00 0.00 0.00 30 1010.5
20260510000440 67 300 2.0 2.0 0.00 0.00 0.00 29 1010.5
20260509235935 67 2 2.0 2.0 0.00 0.00 0.00 29 1010.4
20260509235432 68 294 2.0 3.0 0.00 0.00 0.00 29 1010.5
20260509234928 68 295 2.0 2.0 0.00 0.00 0.00 29 1010.5
20260509234425 69 341 3.0 3.0 0.00 0.00 0.00 28 1010.2
20260509233923 69 323 1.0 1.0 0.00 0.00 0.00 28 1010.3
20260509233420 68 351 5.0 6.0 0.00 0.00 0.00 27 1010.2
20260509232916 68 320 2.0 2.0 0.00 0.00 0.00 28 1010.3
20260509232414 68 313 5.0 7.0 0.00 0.00 0.00 28 1010.3
20260509231909 68 315 2.0 2.0 0.00 0.00 0.00 33 1010.3
20260509231406 69 308 1.0 2.0 0.00 0.00 0.00 33 1010.2
20260509230905 69 281 1.0 2.0 0.00 0.00 0.00 32 1010.0
20260509230401 69 303 2.0 2.0 0.00 0.00 0.00 29 1009.8
20260509225857 70 304 2.0 2.0 0.00 0.00 0.00 31 1009.7
20260509225354 71 327 4.0 5.0 0.00 0.00 0.00 30 1009.8
20260509224849 71 302 3.0 5.0 0.00 0.00 0.00 29 1009.6
20260509224346 71 307 1.0 2.0 0.00 0.00 0.00 32 1009.4
20260509223843 70 13 3.0 5.0 0.00 0.00 0.00 29 1009.5
20260509223339 70 293 2.0 2.0 0.00 0.00 0.00 29 1009.3
20260509222837 70 305 2.0 3.0 0.00 0.00 0.00 30 1009.2
20260509222332 70 305 2.0 2.0 0.00 0.00 0.00 31 1009.2
20260509221827 70 307 4.0 6.0 0.00 0.00 0.00 32 1009.1
20260509221325 70 301 2.0 2.0 0.00 0.00 0.00 34 1009.1
20260509220825 71 308 1.0 1.0 0.00 0.00 0.00 34 1009.3
20260509220321 71 286 2.0 2.0 0.00 0.00 0.00 35 1009.0
20260509215817 71 353 4.0 8.0 0.00 0.00 0.00 32 1009.2
20260509215314 70 303 3.0 3.0 0.00 0.00 0.00 35 1009.0
20260509214811 70 299 3.0 3.0 0.00 0.00 0.00 35 1009.1
20260509214308 71 331 4.0 8.0 0.00 0.00 0.00 35 1008.9
20260509213805 71 314 3.0 3.0 0.00 0.00 0.00 37 1009.0
20260509213301 70 299 2.0 2.0 0.00 0.00 0.00 35 1008.7
20260509212758 70 219 6.0 8.0 0.00 0.00 0.00 38 1008.8
20260509212255 70 295 2.0 3.0 0.00 0.00 0.00 43 1008.8
20260509211751 70 251 2.0 3.0 0.00 0.00 0.00 44 1008.7
20260509211248 70 314 5.0 9.0 0.00 0.00 0.00 42 1008.8
20260509210744 69 308 1.0 2.0 0.00 0.00 0.00 45 1009.1
20260509210242 70 286 1.0 2.0 0.00 0.00 0.00 49 1008.9
20260509205741 69 306 5.0 7.0 0.00 0.00 0.00 43 1008.9
20260509205236 70 281 2.0 3.0 0.00 0.00 0.00 45 1008.8
20260509204732 69 305 0.0 1.0 0.00 0.00 0.00 46 1008.8
20260509204229 69 291 2.0 2.0 0.00 0.00 0.00 45 1009.0
20260509203725 69 295 2.0 2.0 0.00 0.00 0.00 47 1009.0
20260509203223 68 336 2.0 2.0 0.00 0.00 0.00 48 1009.0